User: anonymous   Login
Location: Corona
(40.7470°N, 73.8601°W)
Time: 23:28:29
(UTC+00:00)
Language:

MONITOR-E - Orbit

View from above orbital plane
View from above orbital plane
View from above satellite
View from above satellite

Ground track
Ground track

The orbit data is extracted from the following two-line orbital elements,

1 28822U 05032A   19320.02885595  .00019521  00000-0  13252-3 0  9993
2 28822  97.0679 351.0191 0002443 134.5349 225.6116 15.74993133793674
Epoch (UTC): 16 November 2019 00:41:33
Eccentricity: 0.0002443
inclination: 97.0679°
perigee height: 343 km
apogee height: 346 km
right ascension of ascending node: 351.0191°
argument of perigee: 134.5349°
revolutions per day: 15.74993133
mean anomaly at epoch: 225.6116°
orbit number at epoch: 79367

The dashed part of the orbit path shows where the satellite is in the earth's shadow,  

DLR